sat.trackr.live / text

‹ back to catalog

STARLINK-34323

NORAD 64219 · 2025-117S

PAYLOAD ACTIVE UNKNOWN

§ Identity

Operator
Country
US
Launch date
2025-05-31
Launch site
AFWTR
Launch vehicle
Mass (kg)
RCS (m²)

Purposes: comms

External: N2YO · Heavens-Above · Gunter

§ Orbital elements

Epoch: 2026-05-25T00:18:48.021120Z

Period
94.10 min
Inclination
53.1582°
Eccentricity
0.0001047
Mean motion
15.30225364 rev/d
Perigee alt
474.4 km
Apogee alt
475.9 km
Semi-major
6,853.3 km
B*
7.1003e-4
RAAN
44.9142°
Arg perigee
88.3312°
Mean anomaly
271.7809°
Rev number
5,624

§ Raw data

STARLINK-343231 64219U 25117S   26145.01305580  .00020745  00000+0  71003-3 0  99992 64219  53.1582  44.9142 0001047  88.3312 271.7809 15.30225364 56241

JSON: /api/v1/satellites/64219 · /tle

For live sub-satellite position, see the globe view (requires WebGL).

§ Visibility from observer

Set your observer location to see the next 7 days of passes ≥ 10°. The values pass through the URL so the page stays shareable.

No JS? Fill the form by hand. The geolocation button needs JavaScript.